map of KIH home
KIH - Airport
Location
City:  Kish Island, Hormozgan, Iran
ICAO:OIBK
IATA:KIH

Details
Type:Airport (Aerodrome, Airfield)
Use:Public/Civil, Military
Latitude:2631'34"N (26.526156)
Longitude:5358'49"E (53.980211)
Datum:WGS 1984
Elevation:101 ft (31 m)
Variation:2.51E (WMM2015v2 magnetic declination)
0.05 annual change
Runways:2
Longest:12004 × 215 ft (3659 × 65.5 m), paved

Time
Time Zone:UTC+3:30 (DST+4:30)
Local Time:

Weather
METAR:OIBK 041400Z 30016KT CAVOK 20/08 Q1017
TAF:OIBK 041100Z 0412/0518 33014KT 7000 NSC
TEMPO 0412/0418 29020G30KT
TEMPO 0421/0503 3000 HZ

Related Locations
Nearby:
Farthest:GMR: 11839 mi / 19054 km
Mangareva [Totegegie], Gambier Islands, PF

Find:

   beyond  
but within

Other Information
Maps:
NOTAMs:
Links:
Sources:

  
  • flag of Iran
  

Sectional Chart

Flight Planning
at skyvector.com

Satellite Image

Google Maps Satellite view

 

Copyright © 2004-2019 Karl L. Swartz. All rights reserved.
The Great Circle Mapper name and logo are trademarks of the Great Circle Mapper.
All other trademarks mentioned herein belong to their respective owners.
Please see credits for attibutions and further copyright information.

  Follow gcmap on Facebook Follow gcmap on Twitter GCmap on LinkedIn

hCard Microformat

Geo Microformat